Regional Weather Roundup
Issued by NWS

Home | Current Version | Previous Version | Graphics & Text | Print | Product List | Glossary On
Versions: 1 2 3 4 5 6 7 8 9 10 11 12 13 14 15 16 17 18 19 20 21 22 23 24 25 26 27 28 29 30 31 32 33 34 35 36 37 38 39 40 41 42 43 44 45 46 47 48 49 50
000
ASUS45 KBOI 191710
RWRID

IDAHO REGIONAL WEATHER ROUNDUP
NATIONAL WEATHER SERVICE BOISE ID
1100 AM MDT TUE SEP 19 2017

NOTE: "FAIR" INDICATES FEW OR NO CLOUDS BELOW 12000 FEET
WITH NO SIGNIFICANT WEATHER AND/OR OBSTRUCTIONS TO VISIBILITY

IDZ012-014-191800-
SOUTHWEST IDAHO


CITY           SKY/WX    TMP DP  RH WIND       PRES   REMARKS
BOISE          LGT RAIN  49  40  71 W7        29.92R
CALDWELL       CLOUDY    55  41  59 SW14G20   29.89S
MOUNTAIN HOME  DRIZZLE   52  44  76 VRB3      29.93R
$$

IDZ016-017-191800-
SOUTHCENTRAL IDAHO


CITY           SKY/WX    TMP DP  RH WIND       PRES   REMARKS
BURLEY         PTSUNNY   46  38  73 NW13G20   29.92R
JEROME         CLOUDY    45  42  89 SW8       29.93R
TWIN FALLS     CLOUDY    45  41  86 W3        29.93R
$$

IDZ019>023-191800-
SOUTHEAST IDAHO


CITY           SKY/WX    TMP DP  RH WIND       PRES   REMARKS
IDAHO FALLS    PTSUNNY   47  39  74 SW17      29.85R
POCATELLO      CLOUDY    48  38  68 W18       29.89S
REXBURG        CLOUDY    44  36  73 SW17G24   29.83R
$$

IDZ006-010-011-018-031-032-191800-
CENTRAL IDAHO MOUNTAINS


CITY           SKY/WX    TMP DP  RH WIND       PRES   REMARKS
MCCALL         CLOUDY    40  36  86 S14       29.81S WCI  32
HAILEY         PTSUNNY   43  37  81 E12       29.88R
STANLEY          N/A     35  33  92 VRB5      29.85R WCI  31
SALMON         CLOUDY    47  37  68 VRB3      29.79S
CHALLIS        CLOUDY    42  38  85 CALM      29.80S
$$

IDZ002-004-006-007-026-191800-
NORTHERN IDAHO


CITY           SKY/WX    TMP DP  RH WIND       PRES   REMARKS
LEWISTON       LGT RAIN  52  48  86 NE5       29.78R
LOWELL           N/A     48  44  86 CALM      29.83S
COEUR D`ALENE  LGT RAIN  44  42  93 SE7       29.74R
MULLAN PASS    SNOW      31  29  92 VRB5      29.71R VSB 1/4 WCI  26
$$



USA.gov is the U.S. government's official web portal to all federal, state and local government web resources and services.